{"data":{"norad_id":69147,"intl_designator":"2026-110Z","name":"STARLINK-37661","alt_names":[],"object_type":"PAYLOAD","status":"ACTIVE","operator":null,"country":"US","launch_date":"2026-05-20","launch_site_code":"AFWTR","launch_vehicle":null,"mission":null,"orbit_class":"UNKNOWN","rcs_meters":null,"size_class":null,"mass_kg":null,"dimensions":null,"purposes":["comms"],"wikipedia_slug":null,"has_3d_model":false,"image_url":null,"decayed_at":null,"tle_current":{"epoch":"2026-09-19T23:52:47.953344Z","epoch_age_seconds":66757,"freshness":"FRESH","line1":"1 69147U 26110Z   26262.99499946  .00006433  00000+0  20139-3 0  9997","line2":"2 69147  97.2870  98.1338 0001681  90.8951 269.2485 15.33449848 20144","mean_motion":15.33449848,"eccentricity":0.0001681,"inclination_deg":97.287,"raan_deg":98.1338,"arg_perigee_deg":90.8951,"mean_anomaly_deg":269.2485,"bstar":0.00020139,"rev_number":2014,"period_min":93.905907772473,"perigee_km":464.37833006637,"apogee_km":466.67917049161,"semimajor_km":6843.665750279,"source":"CELESTRAK","updated_at":"2026-09-20T09:00:44.088959Z"}}}